Weather History for Las Vegas, NM

Change the Weather History Date:

Monday, May 7, 2012

  Actual Average Record
Temperature  
Mean Temperature 42 °F -  
Max Temperature 48 °F 68 °F 84 °F (1962)
Min Temperature 37 °F 37 °F 27 °F (1982)
Degree Days  
Heating Degree Days 22    
Moisture  
Dew Point 41 °F    
Average Humidity 93    
Maximum Humidity 100    
Minimum Humidity 80    
Precipitation  
Precipitation 0.05 in - - ()
Sea Level Pressure  
Sea Level Pressure 30.15 in    
Wind  
Wind Speed 11 mph (NE)    
Max Wind Speed 29 mph    
Max Gust Speed 37 mph    
Visibility 9 miles    
Events Rain    
Averages and records for this station are not official NWS values.
T = Trace of Precipitation, MM = Missing Value Source: NWS Daily Summary

Daily Weather History Graph

Daily Weather History Graph

Search for Another Location

Airport:

Trip Planner

Search our weather history database for the weather conditions in past years. The results will help you decide how hot, cold, wet, or windy it might be!

Date:

Astronomy

May. 07, 2012 Rise Set
Actual Time 6:01 AM MDT 7:52 PM MDT
Civil Twilight 5:34 AM MDT 8:20 PM MDT
Nautical Twilight 5:00 AM MDT 8:54 PM MDT
Astronomical Twilight 4:24 AM MDT 9:30 PM MDT
Moon 10:04 PM MDT (5/7) 7:13 AM MDT (5/7)
Length of Visible Light 14h 46m
Length of Day
13h 50m
Waning Gibbous, 96% of the Moon is Illuminated
May 7
Waning Gibbous
May 12
Last Quarter
May 20
New
May 28
First Quarter
Jun 4
Full

Hourly Weather History & Observations

Time (MDT) Temp. Windchill Dew Point Humidity Pressure Visibility Wind Dir Wind Speed Gust Speed Precip Events Conditions
12:23 AM 48.2 °F - 46.4 °F 93% 30.19 in 10.0 mi East 5.8 mph - N/A   Overcast
12:53 AM 46.9 °F - 45.0 °F 93% 29.94 in 10.0 mi NE 5.8 mph - N/A   Overcast
1:53 AM 46.9 °F - 46.0 °F 97% 29.94 in 10.0 mi NNE 4.6 mph - N/A   Overcast
2:03 AM 48.2 °F - 46.4 °F 93% 30.17 in 10.0 mi North 6.9 mph - N/A   Overcast
2:13 AM 48.2 °F - 46.4 °F 93% 30.16 in 10.0 mi North 10.4 mph - N/A   Overcast
2:20 AM 46.4 °F 41.5 °F 44.6 °F 93% 30.16 in 10.0 mi NNE 10.4 mph - N/A   Overcast
2:40 AM 46.4 °F 43.5 °F 46.4 °F 100% 30.18 in 10.0 mi ENE 5.8 mph - N/A   Overcast
2:53 AM 46.9 °F - 46.0 °F 97% 29.93 in 10.0 mi ENE 5.8 mph - N/A   Overcast
3:15 AM 48.2 °F - 46.4 °F 93% 30.17 in 10.0 mi NE 6.9 mph - N/A   Overcast
3:39 AM 48.2 °F - 46.4 °F 93% 30.18 in 10.0 mi ENE 8.1 mph - N/A   Overcast
3:53 AM 48.0 °F - 46.0 °F 93% 29.94 in 10.0 mi ENE 6.9 mph - N/A   Overcast
4:15 AM 48.2 °F - 46.4 °F 93% 30.18 in 10.0 mi NE 9.2 mph - N/A   Overcast
4:29 AM 48.2 °F - 46.4 °F 93% 30.19 in 10.0 mi ENE 5.8 mph - N/A   Overcast
4:53 AM 46.9 °F - 46.0 °F 97% 29.97 in 10.0 mi East 8.1 mph - N/A   Overcast
5:01 AM 46.4 °F 42.4 °F 46.4 °F 100% 30.19 in 10.0 mi East 8.1 mph - N/A   Overcast
5:33 AM 46.4 °F 41.1 °F 46.4 °F 100% 30.20 in 10.0 mi East 11.5 mph - N/A   Overcast
5:41 AM 46.4 °F 41.9 °F 46.4 °F 100% 30.20 in 10.0 mi East 9.2 mph - N/A   Overcast
5:53 AM 46.9 °F - 45.0 °F 93% 29.99 in 10.0 mi East 8.1 mph - N/A   Overcast
6:53 AM 45.0 °F 37.4 °F 44.1 °F 97% 30.03 in 5.0 mi East 18.4 mph 25.3 mph 0.03 in Rain Light Rain
7:00 AM 44.6 °F 36.4 °F 44.6 °F 100% 30.22 in 5.0 mi East 20.7 mph - 0.00 in   Overcast
7:36 AM 41.0 °F 30.0 °F 39.2 °F 93% 30.24 in 1.8 mi NE 28.8 mph 35.7 mph 0.01 in Rain Light Rain
7:53 AM 39.9 °F 28.8 °F 39.0 °F 97% 30.09 in 1.5 mi ENE 27.6 mph 34.5 mph 0.01 in Rain Light Rain
8:04 AM 39.2 °F 27.6 °F 37.4 °F 93% 30.25 in 2.0 mi ENE 28.8 mph 36.8 mph 0.01 in Rain Light Rain
8:16 AM 37.4 °F 25.4 °F 37.4 °F 100% 30.25 in 5.0 mi ENE 27.6 mph 36.8 mph 0.01 in Rain Light Rain
8:53 AM 37.9 °F 27.3 °F 37.0 °F 97% 30.14 in 9.0 mi NE 21.9 mph - 0.01 in   Overcast
9:08 AM 39.2 °F 29.6 °F 37.4 °F 93% 30.27 in 4.0 mi NE 19.6 mph - 0.00 in Rain Light Rain
9:23 AM 39.2 °F 29.6 °F 37.4 °F 93% 30.27 in 8.0 mi NE 19.6 mph - 0.00 in Rain Light Rain
9:53 AM 39.0 °F 29.9 °F 37.9 °F 96% 30.14 in 10.0 mi NNE 17.3 mph - 0.00 in Rain Light Rain
10:53 AM 39.0 °F 30.3 °F 37.0 °F 93% 30.14 in 10.0 mi NNE 16.1 mph - 0.00 in   Overcast
11:30 AM 39.2 °F 30.8 °F 37.4 °F 93% 30.28 in 10.0 mi North 15.0 mph - N/A   Overcast
11:37 AM 39.2 °F 30.5 °F 37.4 °F 93% 30.28 in 10.0 mi North 16.1 mph - N/A   Overcast
11:53 AM 39.9 °F 32.5 °F 37.0 °F 89% 30.15 in 10.0 mi North 12.7 mph - N/A   Overcast
12:53 PM 41.0 °F 33.5 °F 37.0 °F 86% 30.14 in 10.0 mi NE 13.8 mph - N/A   Overcast
1:10 PM 41.0 °F 35.2 °F 37.4 °F 87% 30.27 in 10.0 mi NNE 9.2 mph - N/A   Overcast
1:53 PM 41.0 °F 32.5 °F 37.0 °F 86% 30.12 in 10.0 mi NE 17.3 mph - N/A   Overcast
2:53 PM 43.0 °F 35.7 °F 37.9 °F 82% 30.08 in 10.0 mi NNE 15.0 mph - N/A   Overcast
3:15 PM 42.8 °F 36.6 °F 37.4 °F 81% 30.21 in 10.0 mi NNE 11.5 mph - N/A   Overcast
3:53 PM 43.0 °F 36.0 °F 37.0 °F 80% 30.05 in 10.0 mi NNE 13.8 mph - N/A   Overcast
4:53 PM 42.1 °F 34.9 °F 37.9 °F 85% 30.06 in 10.0 mi NNE 13.8 mph - N/A   Overcast
5:53 PM 41.0 °F 32.8 °F 37.9 °F 89% 30.07 in 10.0 mi NE 16.1 mph - N/A   Overcast
6:34 PM 41.0 °F 33.9 °F 39.2 °F 93% 30.21 in 10.0 mi NNE 12.7 mph - N/A   Overcast
6:53 PM 41.0 °F 35.2 °F 39.0 °F 93% 30.09 in 8.0 mi NE 9.2 mph - N/A   Overcast
7:37 PM 41.0 °F 36.4 °F 39.2 °F 93% 30.23 in 9.0 mi NNE 6.9 mph - 0.00 in   Overcast
7:49 PM 41.0 °F 34.7 °F 39.2 °F 93% 30.23 in 10.0 mi NNE 10.4 mph - 0.00 in   Overcast
7:53 PM 41.0 °F 35.2 °F 39.0 °F 93% 30.13 in 10.0 mi NNE 9.2 mph - 0.00 in   Overcast
8:53 PM 41.0 °F 35.2 °F 39.0 °F 93% 30.15 in 10.0 mi NNE 9.2 mph - N/A   Overcast
9:53 PM 41.0 °F 33.5 °F 39.0 °F 93% 30.15 in 10.0 mi North 13.8 mph - N/A   Overcast
10:53 PM 41.0 °F 34.3 °F 39.0 °F 93% 30.15 in 10.0 mi North 11.5 mph - N/A   Overcast
11:21 PM 41.0 °F 35.2 °F 39.2 °F 93% 30.25 in 10.0 mi North 9.2 mph - N/A   Overcast
11:53 PM 41.0 °F 36.4 °F 37.9 °F 89% 30.16 in 10.0 mi NNE 6.9 mph - N/A   Overcast